Location: Baia Mare
(47.6567°N, 23.5850°E)
Time: 22:45:58
(UTC+03:00)

ISS - Pass Details

Date: 14 September 2019
Orbit: 411 x 421 km, 51.6° (Epoch: 19 September)

Event Time Altitude Azimuth Distance (km) Brightness Sun altitude
Exits shadow 05:44:57 25° 247° (WSW) 875 -2.8 -13.2°
Maximum altitude 05:45:51 29° 217° (SW) 784 -2.9 -13.1°
Drops below altitude 10° 05:48:49 10° 155° (SSE) 1,486 -0.9 -12.6°
Sets 05:51:03 0° 144° (SE) 2,347 0.3 -12.3°
